Weather History for YAMB - April, 2014

Change the Weather History Date:

Monday, April 21, 2014

  Actual Average Record
Temperature  
Mean Temperature 66 °F -  
Max Temperature 82 °F - - ()
Min Temperature 50 °F - - ()
Cooling Degree Days 1    
Growing Degree Days 16 (Base 50)    
Moisture  
Dew Point 55 °F    
Average Humidity 71    
Maximum Humidity 100    
Minimum Humidity 35    
Precipitation  
Precipitation 0.00 in - - ()
Sea Level Pressure  
Sea Level Pressure 30.09 in    
Wind  
Wind Speed 2 mph ()    
Max Wind Speed 10 mph    
Max Gust Speed -    
Visibility 6.2 miles    
Events      
T = Trace of Precipitation, MM = Missing Value Source: Averaged Metar Reports

Daily Weather History Graph

Daily Weather History Graph

Search for Another Location

Airport or City:

Trip Planner

Search our weather history database for the weather conditions in past years. The results will help you decide how hot, cold, wet, or windy it might be!

Date:

Astronomy

Apr. 21, 2014 Rise Set
Actual Time 6:09 AM AEST 5:26 PM AEST
Civil Twilight 5:45 AM AEST 5:50 PM AEST
Nautical Twilight 5:17 AM AEST 6:17 PM AEST
Astronomical Twilight 4:50 AM AEST 6:44 PM AEST
Moon 10:42 PM AEST (4/21) 11:29 AM AEST (4/21)
Length of Visible Light 12h 05m
Length of Day
11h 17m
Waning Gibbous, 64% of the Moon is Illuminated
Apr 21
Waning Gibbous
Apr 22
Last Quarter
Apr 29
New
May 7
First Quarter
May 15
Full

Hourly Weather History & Observations

Time (AEST) Temp. Heat Index Dew Point Humidity Pressure Visibility Wind Dir Wind Speed Gust Speed Precip Events Conditions
12:00 AM 55.4 °F - 51.8 °F 88% 30.06 in 6.2 mi Calm Calm - N/A   Unknown
12:30 AM 55.4 °F - 51.8 °F 88% 30.06 in 6.2 mi Calm Calm - N/A   Unknown
1:00 AM 55.4 °F - 51.8 °F 88% 30.06 in 6.2 mi Calm Calm - N/A   Unknown
1:30 AM 55.4 °F - 51.8 °F 88% 30.06 in 6.2 mi Calm Calm - N/A   Unknown
2:00 AM 53.6 °F - 51.8 °F 94% 30.06 in 6.2 mi Calm Calm - N/A   Unknown
2:30 AM 53.6 °F - 51.8 °F 94% 30.06 in 6.2 mi Calm Calm - N/A   Unknown
3:00 AM 53.6 °F - 51.8 °F 94% 30.06 in 6.2 mi Calm Calm - N/A   Unknown
3:30 AM 51.8 °F - 50.0 °F 94% 30.06 in 6.2 mi Calm Calm - N/A   Unknown
4:00 AM 51.8 °F - 50.0 °F 94% 30.06 in 6.2 mi NW 5.8 mph - N/A   Unknown
4:30 AM 51.8 °F - 50.0 °F 94% 30.09 in 6.2 mi NW 1.2 mph - N/A   Unknown
5:00 AM 51.8 °F - 50.0 °F 94% 30.09 in 6.2 mi Calm Calm - N/A   Unknown
5:30 AM 51.8 °F - 50.0 °F 94% 30.09 in 6.2 mi Calm Calm - N/A   Unknown
6:00 AM 51.8 °F - 50.0 °F 94% 30.12 in 6.2 mi Calm Calm - N/A   Unknown
6:30 AM 50.0 °F - 50.0 °F 100% 30.12 in 4.3 mi Calm Calm - N/A   Unknown
7:00 AM 53.6 °F - 51.8 °F 94% 30.12 in 6.2 mi Calm Calm - N/A   Unknown
7:30 AM 57.2 °F - 53.6 °F 88% 30.15 in 6.2 mi Calm Calm - N/A   Unknown
8:00 AM 62.6 °F - 55.4 °F 77% 30.15 in 6.2 mi Calm Calm - N/A   Unknown
8:30 AM 64.4 °F - 55.4 °F 73% 30.15 in 6.2 mi SSW 2.3 mph - N/A   Unknown
9:00 AM 68.0 °F - 55.4 °F 64% 30.15 in 6.2 mi SSW 2.3 mph - N/A   Unknown
9:30 AM 69.8 °F - 57.2 °F 64% 30.15 in 6.2 mi SSW 1.2 mph - N/A   Unknown
10:00 AM 73.4 °F - 59.0 °F 61% 30.15 in 6.2 mi NNW 3.5 mph - N/A   Unknown
10:30 AM 75.2 °F - 60.8 °F 61% 30.15 in 6.2 mi WNW 4.6 mph - N/A   Unknown
11:00 AM 77.0 °F - 59.0 °F 54% 30.12 in 6.2 mi NW 6.9 mph - N/A   Unknown
11:30 AM 78.8 °F - 59.0 °F 51% 30.12 in 6.2 mi WNW 8.1 mph - N/A   Unknown
12:00 PM 80.6 °F 80.8 °F 57.2 °F 45% 30.09 in 6.2 mi NNW 9.2 mph - N/A   Unknown
12:30 PM 80.6 °F 80.8 °F 57.2 °F 45% 30.09 in 6.2 mi NW 5.8 mph - N/A   Unknown
1:00 PM 82.4 °F 81.7 °F 55.4 °F 39% 30.06 in 6.2 mi North 6.9 mph - N/A   Unknown
1:30 PM 82.4 °F 81.4 °F 53.6 °F 37% 30.06 in 6.2 mi NW 5.8 mph - N/A   Unknown
2:00 PM 82.4 °F 81.4 °F 53.6 °F 37% 30.04 in 6.2 mi West 6.9 mph - N/A   Unknown
2:30 PM 82.4 °F 81.4 °F 53.6 °F 37% 30.04 in 6.2 mi NNE 6.9 mph - N/A   Unknown
3:00 PM 82.4 °F - 51.8 °F 35% 30.04 in 6.2 mi North 6.9 mph - N/A   Unknown
3:30 PM 82.4 °F - 51.8 °F 35% 30.04 in 6.2 mi NE 5.8 mph - N/A   Unknown
4:00 PM 82.4 °F - 51.8 °F 35% 30.04 in 6.2 mi North 5.8 mph - N/A   Unknown
4:30 PM 80.6 °F - 51.8 °F 37% 30.04 in 6.2 mi NE 5.8 mph - N/A   Unknown
5:00 PM 78.8 °F - 57.2 °F 47% 30.04 in 6.2 mi NE 9.2 mph - N/A   Unknown
5:30 PM 77.0 °F - 59.0 °F 54% 30.04 in 6.2 mi NE 10.4 mph - N/A   Unknown
6:00 PM 75.2 °F - 60.8 °F 61% 30.06 in 6.2 mi NE 9.2 mph - N/A   Unknown
6:30 PM 73.4 °F - 59.0 °F 61% 30.06 in 6.2 mi ENE 8.1 mph - N/A   Unknown
7:00 PM 71.6 °F - 59.0 °F 64% 30.09 in 6.2 mi ENE 6.9 mph - N/A   Unknown
7:30 PM 69.8 °F - 59.0 °F 68% 30.09 in 6.2 mi East 5.8 mph - N/A   Unknown
8:00 PM 68.0 °F - 59.0 °F 73% 30.09 in 6.2 mi East 4.6 mph - N/A   Unknown
8:30 PM 68.0 °F - 59.0 °F 73% 30.09 in 6.2 mi East 4.6 mph - N/A   Unknown
9:00 PM 68.0 °F - 60.8 °F 78% 30.12 in 6.2 mi East 4.6 mph - N/A   Unknown
9:30 PM 62.6 °F - 59.0 °F 88% 30.12 in 6.2 mi East 1.2 mph - N/A   Unknown
10:00 PM 60.8 °F - 59.0 °F 94% 30.12 in 6.2 mi Calm Calm - N/A   Unknown
10:30 PM 60.8 °F - 59.0 °F 94% 30.12 in 6.2 mi WNW 2.3 mph - N/A   Unknown
11:00 PM 60.8 °F - 59.0 °F 94% 30.12 in 6.2 mi Calm Calm - N/A   Unknown
11:30 PM 59.0 °F - 57.2 °F 94% 30.12 in 6.2 mi Calm Calm - N/A   Unknown